TimeCDT,TemperatureF,Dew PointF,Humidity,Sea Level PressureIn,VisibilityMPH,Wind Direction,Wind SpeedMPH,Gust SpeedMPH,PrecipitationIn,Events,Conditions,WindDirDegrees,DateUTC
12:56 AM,66.9,64.9,93,30.11,10.0,Calm,Calm,-,N/A,,Mostly Cloudy,0,2013-09-05 05:56:00
1:56 AM,68.0,64.9,90,30.12,10.0,East,5.8,-,N/A,,Partly Cloudy,80,2013-09-05 06:56:00
2:56 AM,66.9,64.0,90,30.13,10.0,ENE,5.8,-,N/A,,Clear,70,2013-09-05 07:56:00
3:08 AM,66.2,64.4,94,30.15,10.0,ENE,6.9,-,N/A,,Scattered Clouds,70,2013-09-05 08:08:00
3:18 AM,66.2,64.4,94,30.16,10.0,ENE,6.9,-,N/A,,Mostly Cloudy,70,2013-09-05 08:18:00
3:56 AM,66.0,64.0,93,30.14,10.0,East,6.9,-,N/A,,Overcast,80,2013-09-05 08:56:00
4:56 AM,66.0,63.0,90,30.16,10.0,East,6.9,-,N/A,,Overcast,80,2013-09-05 09:56:00
5:56 AM,66.0,63.0,90,30.17,10.0,ENE,5.8,-,N/A,,Overcast,70,2013-09-05 10:56:00
6:27 AM,66.2,62.6,88,30.22,10.0,ENE,8.1,-,N/A,,Overcast,70,2013-09-05 11:27:00
6:41 AM,66.2,62.6,88,30.22,10.0,East,9.2,-,N/A,,Overcast,80,2013-09-05 11:41:00
6:56 AM,66.0,63.0,90,30.20,10.0,East,8.1,-,N/A,,Overcast,90,2013-09-05 11:56:00
7:08 AM,66.2,62.6,88,30.23,10.0,East,8.1,-,N/A,,Overcast,90,2013-09-05 12:08:00
7:44 AM,66.2,62.6,88,30.23,10.0,East,10.4,-,N/A,,Overcast,80,2013-09-05 12:44:00
7:56 AM,66.9,62.1,84,30.21,10.0,East,9.2,-,N/A,,Overcast,80,2013-09-05 12:56:00
8:56 AM,66.9,61.0,81,30.22,10.0,East,9.2,-,N/A,,Overcast,90,2013-09-05 13:56:00
9:18 AM,69.8,59.0,68,30.25,10.0,East,13.8,19.6,N/A,,Scattered Clouds,90,2013-09-05 14:18:00
9:56 AM,71.1,59.0,66,30.24,10.0,East,11.5,-,N/A,,Clear,100,2013-09-05 14:56:00
10:56 AM,72.0,59.0,64,30.24,10.0,East,10.4,-,N/A,,Clear,90,2013-09-05 15:56:00
11:56 AM,75.0,60.1,60,30.23,-9999.0,North,-9999.0,-,N/A,,Clear,0,2013-09-05 16:56:00
12:56 PM,77.0,61.0,58,30.23,10.0,SE,8.1,-,N/A,,Partly Cloudy,130,2013-09-05 17:56:00
1:56 PM,77.0,62.1,60,30.22,10.0,East,10.4,-,N/A,,Overcast,100,2013-09-05 18:56:00
2:56 PM,78.1,63.0,60,30.20,10.0,East,8.1,-,N/A,,Scattered Clouds,80,2013-09-05 19:56:00
3:56 PM,77.0,62.1,60,30.19,10.0,East,5.8,-,N/A,,Clear,100,2013-09-05 20:56:00
4:56 PM,77.0,63.0,62,30.18,10.0,ESE,4.6,-,N/A,,Clear,110,2013-09-05 21:56:00
5:56 PM,75.9,63.0,64,30.17,10.0,SE,5.8,-,N/A,,Clear,130,2013-09-05 22:56:00
6:56 PM,73.0,62.1,68,30.17,10.0,ESE,4.6,-,N/A,,Clear,120,2013-09-05 23:56:00
7:56 PM,66.9,61.0,81,30.18,10.0,East,5.8,-,N/A,,Clear,90,2013-09-06 00:56:00
8:56 PM,64.9,60.1,84,30.19,10.0,East,3.5,-,N/A,,Clear,100,2013-09-06 01:56:00
9:56 PM,64.0,60.1,87,30.20,10.0,ESE,4.6,-,N/A,,Clear,110,2013-09-06 02:56:00
10:56 PM,63.0,57.9,84,30.20,10.0,East,6.9,-,N/A,,Clear,100,2013-09-06 03:56:00
11:56 PM,60.1,55.9,86,30.20,10.0,East,5.8,-,N/A,,Clear,100,2013-09-06 04:56:00